BEIDOU-2 G4 (C04)

Last updated on Thu Nov 21 2024 00:03:16 GMT+0000 (Coordinated Universal Time)

1 37210U 10057A 24325.63802295 -.00000110 00000+0 00000+0 0 9998 2 37210 2.2256 70.0890 0009698 179.1764 200.5436 1.00272755 51547
UTC large
Height (km)
Speed (km/s)
/
Latitude / Longitude
Inclination (degrees)
Orbital Period (minutes)
Azimuth
Elevation
Range (km)
Doppler Factor

Next 0 passes for location: London (51.5072 / 0.1276)

Sorry there are no passes over London.